CW4772 Weather Reports


time (UTC)temp
F
wind
direction
speed
knots
gust
knots
rain 1hr
in
rain 24hr
in
rain mn
in
humidity
%
barometer
mb
20260905221705 53 289 0.9 2.6 0.00 0.12 0.00 83 1022.2
20260905220204 53 305 0.9 2.6 0.00 0.12 0.00 83 1022.1
20260905215204 54 290 0.9 6.1 0.00 0.12 0.12 83 1022.2
20260905213204 57 283 1.7 6.1 0.00 0.12 0.12 77 1021.9
20260905212704 57 286 1.7 5.2 0.00 0.12 0.12 76 1021.9
20260905212204 57 294 1.7 6.1 0.00 0.12 0.12 76 1021.8
20260905211704 57 288 2.6 6.1 0.00 0.12 0.12 76 1021.7
20260905211204 58 292 1.7 5.2 0.00 0.12 0.12 76 1021.7
20260905205704 58 286 1.7 2.6 0.00 0.12 0.12 75 1021.4
20260905205205 58 299 1.7 2.6 0.00 0.12 0.12 74 1021.3
20260905204205 59 280 1.7 5.2 0.00 0.12 0.12 74 1021.4
20260905202705 60 282 2.6 7.0 0.00 0.12 0.12 74 1021.1
20260905202204 60 285 4.3 7.0 0.00 0.12 0.12 74 1021.1
20260905201704 61 283 2.6 7.0 0.00 0.12 0.12 75 1021.1
20260905200705 60 284 1.7 6.1 0.00 0.12 0.12 79 1020.9
20260905200206 60 283 2.6 6.1 0.00 0.12 0.12 81 1020.9
20260905195703 59 288 1.7 6.1 0.00 0.12 0.12 83 1020.9
20260905194703 59 272 0.9 5.2 0.00 0.12 0.12 85 1020.8
20260905192203 61 286 0.9 7.0 0.00 0.12 0.12 79 1020.3
20260905191703 62 293 2.6 7.0 0.00 0.12 0.12 78 1020.2
20260905191203 62 293 2.6 7.0 0.00 0.12 0.12 77 1020.2
20260905190703 63 288 3.5 7.8 0.00 0.12 0.12 77 1020.2
20260905185703 63 288 4.3 10.4 0.00 0.12 0.12 76 1020.1
20260905185203 63 294 4.3 10.4 0.00 0.12 0.12 76 1019.9
20260905184703 63 286 2.6 12.2 0.00 0.12 0.12 76 1019.8
20260905182203 63 295 2.6 8.7 0.00 0.12 0.12 77 1019.3
20260905181703 63 276 1.7 8.7 0.00 0.12 0.12 76 1019.3
20260905181204 63 292 2.6 10.4 0.00 0.12 0.12 76 1019.3
20260905180204 63 267 2.6 7.0 0.00 0.12 0.12 76 1019.2
20260905175703 63 279 2.6 7.0 0.00 0.12 0.12 75 1019.1
20260905175204 63 279 2.6 7.8 0.00 0.12 0.12 76 1019.0
20260905174703 64 278 2.6 8.7 0.00 0.12 0.12 75 1019.0
20260905173203 64 289 2.6 10.4 0.00 0.12 0.12 74 1018.8
20260905172203 64 282 2.6 7.8 0.00 0.12 0.12 73 1018.6
20260905171704 65 282 3.5 7.8 0.00 0.12 0.12 73 1018.6
20260905170703 65 289 1.7 8.7 0.00 0.12 0.12 73 1018.5
20260905165704 65 287 2.6 8.7 0.00 0.12 0.12 72 1018.4
20260905165205 65 279 4.3 7.8 0.00 0.12 0.12 72 1018.4
20260905164704 65 286 3.5 8.7 0.00 0.12 0.12 71 1018.3
20260905163703 66 290 4.3 13.0 0.00 0.12 0.12 70 1018.3
20260905161703 67 311 1.7 13.0 0.00 0.12 0.12 68 1018.2
20260905161204 67 286 5.2 13.0 0.00 0.12 0.12 66 1018.1
20260905160704 67 291 4.3 12.2 0.00 0.12 0.12 67 1018.1
20260905153203 68 282 3.5 10.4 0.00 0.12 0.12 64 1017.9
20260905152705 68 286 4.3 11.3 0.00 0.12 0.12 65 1018.0
20260905152205 68 264 5.2 17.4 0.00 0.12 0.12 66 1018.1
20260905151203 68 291 6.1 17.4 0.00 0.12 0.12 64 1018.1
20260905145703 69 247 5.2 13.9 0.00 0.12 0.12 64 1017.9
20260905145204 69 285 5.2 13.0 0.00 0.12 0.12 63 1017.7
20260905144703 69 283 6.1 13.0 0.00 0.12 0.12 63 1017.7
20260905143704 69 243 7.8 17.4 0.00 0.12 0.12 64 1017.8
20260905143203 69 259 6.1 14.8 0.00 0.12 0.12 64 1017.8
20260905142703 69 278 6.1 17.4 0.00 0.12 0.12 64 1017.8
20260905141704 70 266 7.0 15.6 0.00 0.12 0.12 62 1018.0
20260905140203 70 288 7.8 13.9 0.00 0.12 0.12 64 1018.0
20260905135703 69 299 6.1 19.1 0.00 0.12 0.12 62 1018.0
20260905133704 70 300 6.1 15.6 0.00 0.12 0.12 63 1017.9
20260905133204 70 289 8.7 15.6 0.00 0.12 0.12 62 1017.9
20260905132203 70 284 7.8 17.4 0.00 0.12 0.12 63 1018.2
20260905131704 69 313 6.1 15.6 0.00 0.12 0.12 64 1018.0
20260905131203 70 299 5.2 17.4 0.00 0.12 0.12 65 1018.2
20260905130704 70 281 8.7 17.4 0.00 0.12 0.12 64 1018.1
20260905130204 71 276 7.0 17.4 0.00 0.12 0.12 65 1018.3
20260905124204 69 264 7.0 19.1 0.00 0.12 0.12 64 1018.2
20260905123704 70 281 6.1 19.1 0.00 0.12 0.12 65 1018.2
20260905123204 69 286 8.7 18.2 0.00 0.12 0.12 64 1018.2
20260905122203 69 277 6.1 19.1 0.00 0.12 0.12 62 1018.5
20260905121203 69 273 7.0 17.4 0.00 0.12 0.12 63 1018.4
20260905120703 68 288 8.7 17.4 0.00 0.12 0.12 62 1018.5
20260905120204 67 296 8.7 17.4 0.00 0.12 0.12 63 1018.5
20260905115203 68 296 4.3 17.4 0.00 0.12 0.12 67 1018.3
20260905114704 69 289 8.7 17.4 0.00 0.12 0.12 62 1018.3
20260905113703 68 272 7.0 14.8 0.00 0.12 0.12 67 1018.4
20260905111704 67 287 6.1 13.0 0.00 0.12 0.12 66 1018.4
20260905111203 67 274 7.8 13.0 0.00 0.12 0.12 66 1018.4
20260905105704 66 288 7.8 15.6 0.00 0.12 0.12 67 1018.3
20260905105203 67 292 7.8 13.9 0.00 0.12 0.12 66 1018.3
20260905104203 66 286 8.7 19.1 0.00 0.12 0.12 69 1018.2
20260905103204 67 246 6.1 11.3 0.00 0.12 0.12 72 1018.2
20260905102704 66 245 6.1 13.0 0.00 0.12 0.12 71 1018.2
20260905100204 65 282 5.2 13.0 0.00 0.12 0.12 75 1018.2
20260905095704 65 249 4.3 13.9 0.00 0.12 0.12 77 1018.2
20260905095205 64 276 4.3 13.9 0.00 0.12 0.12 77 1018.3
20260905094203 64 255 3.5 13.0 0.00 0.12 0.12 77 1018.3
20260905093203 63 247 6.1 12.2 0.00 0.12 0.12 79 1018.4
20260905092703 63 251 3.5 12.2 0.00 0.12 0.12 81 1018.4
20260905091703 61 241 5.2 13.9 0.00 0.12 0.12 82 1018.4
20260905090704 60 264 6.1 13.0 0.00 0.12 0.12 84 1018.4
20260905085704 60 236 5.2 13.0 0.00 0.12 0.12 85 1018.2
20260905085203 61 247 5.2 11.3 0.00 0.12 0.12 85 1018.1
20260905084704 60 233 5.2 10.4 0.00 0.12 0.12 88 1018.0
20260905083204 59 222 5.2 13.0 0.00 0.12 0.12 88 1017.8
20260905081704 59 241 5.2 11.3 0.00 0.12 0.12 91 1017.8
20260905081204 58 235 2.6 7.8 0.00 0.12 0.12 93 1017.8
20260905080204 57 231 2.6 7.8 0.00 0.12 0.12 95 1017.6
20260905075704 57 225 2.6 6.1 0.00 0.12 0.12 94 1017.6
20260905075204 56 218 1.7 5.2 0.00 0.12 0.12 95 1017.5
20260905074704 56 276 1.7 6.1 0.00 0.12 0.12 95 1017.6
20260905074204 56 295 0.9 7.0 0.00 0.12 0.12 95 1017.5
20260905073204 56 269 1.7 7.0 0.00 0.12 0.12 96 1017.3
20260905072703 56 252 1.7 8.7 0.00 0.12 0.12 96 1017.1
20260905072204 56 262 4.3 8.7 0.00 0.12 0.12 96 1017.0
20260905071204 56 268 1.7 8.7 0.00 0.12 0.12 97 1016.8
20260905070203 56 229 0.9 8.7 0.01 0.12 0.12 97 1016.8
20260905065704 56 301 1.7 8.7 0.01 0.12 0.12 97 1016.9
20260905065203 55 255 0.9 6.1 0.01 0.12 0.12 97 1016.8
20260905064703 55 267 2.6 6.1 0.02 0.12 0.12 97 1016.6
20260905063204 55 259 0.9 6.1 0.05 0.12 0.12 96 1016.7
20260905062703 55 206 0.9 7.0 0.06 0.12 0.12 97 1016.5
20260905062204 55 221 2.6 7.8 0.06 0.12 0.12 96 1016.4
20260905061704 55 215 2.6 7.8 0.07 0.12 0.12 96 1016.3
20260905061204 55 206 5.2 7.8 0.08 0.12 0.12 96 1016.1
20260905060704 55 204 4.3 7.8 0.09 0.12 0.12 96 1016.6
20260905060204 55 216 4.3 7.8 0.08 0.11 0.11 96 1016.9
20260905055704 55 195 1.7 7.0 0.09 0.11 0.11 96 1017.1
20260905055204 55 222 2.6 7.0 0.08 0.11 0.11 96 1017.3
20260905054704 55 222 0.9 4.3 0.07 0.10 0.10 96 1017.3
20260905053704 55 259 0.9 2.6 0.06 0.08 0.08 95 1017.3
20260905052204 55 283 2.6 5.2 0.04 0.06 0.06 94 1017.0
20260905051205 55 282 3.5 10.4 0.03 0.04 0.04 93 1017.0
20260905050704 56 292 4.3 10.4 0.02 0.04 0.04 93 1017.1
20260905045704 56 285 3.5 10.4 0.01 0.03 0.03 92 1016.9
20260905045204 56 299 2.6 10.4 0.01 0.03 0.03 92 1016.4
20260905044704 57 281 3.5 10.4 0.01 0.03 0.03 92 1016.4
20260905044204 57 300 4.3 8.7 0.01 0.02 0.02 92 1016.2
20260905043705 57 284 3.5 8.7 0.00 0.01 0.01 94 1016.1
20260905041203 57 276 0.9 2.6 0.01 0.01 0.01 94 1015.9
20260905040703 57 284 1.7 2.6 0.01 0.01 0.01 93 1015.9
20260905035703 57 294 0.0 2.6 0.01 0.01 0.01 93 1015.8
20260905032704 58 294 0.9 2.6 0.01 0.01 0.01 90 1015.3
20260905032203 58 275 1.7 2.6 0.01 0.01 0.01 90 1015.4
20260905031704 58 313 0.9 5.2 0.01 0.01 0.01 89 1015.4
20260905031204 59 290 0.9 10.4 0.01 0.01 0.01 87 1014.9
20260905030704 60 277 1.7 10.4 0.00 0.00 0.00 84 1015.1
20260905024704 60 299 0.9 2.6 0.00 0.00 0.00 82 1014.4
20260905024204 60 297 0.9 4.3 0.00 0.00 0.00 82 1014.4
20260905023703 60 30 1.7 4.3 0.00 0.00 0.00 81 1014.4
20260905022704 61 338 2.6 7.0 0.00 0.00 0.00 79 1014.8
20260905021704 61 295 4.3 8.7 0.00 0.00 0.00 78 1014.6
20260905020705 61 352 0.9 5.2 0.00 0.00 0.00 79 1013.7
20260905020204 61 0 1.7 7.0 0.00 0.00 0.00 79 1013.6
20260905015704 61 353 1.7 7.0 0.00 0.00 0.00 80 1013.5
20260905012704 61 312 0.9 6.1 0.00 0.00 0.00 81 1013.7
20260905011704 61 26 1.7 10.4 0.00 0.00 0.00 82 1013.4
20260905010704 61 5 2.6 13.0 0.00 0.00 0.00 83 1013.3
20260905005706 62 12 5.2 13.0 0.00 0.00 0.00 85 1013.3
20260905005204 62 16 6.1 13.9 0.00 0.00 0.00 85 1013.4
20260905004704 62 19 6.1 17.4 0.00 0.00 0.00 85 1013.3
20260905003705 63 29 8.7 21.7 0.00 0.00 0.00 84 1013.1
20260905002704 65 21 12.2 25.2 0.00 0.00 0.00 82 1012.9
20260905001703 63 280 0.9 1.7 0.00 0.00 0.00 85 1011.6
20260905001204 63 251 0.0 2.6 0.00 0.00 0.00 84 1011.5
20260905000204 63 252 0.0 2.6 0.00 0.00 0.00 84 1011.4
20260904235704 63 244 0.0 1.7 0.00 0.00 0.00 84 1011.4
20260904234706 63 275 0.9 2.6 0.00 0.00 0.00 84 1011.4
20260904233704 62 269 0.9 1.7 0.00 0.00 0.00 85 1011.3
20260904232704 62 270 0.0 1.7 0.00 0.00 0.00 87 1011.2
20260904232203 62 270 0.0 0.9 0.00 0.00 0.00 85 1011.2
20260904230705 64 270 0.0 1.7 0.00 0.00 0.00 84 1011.1
20260904230204 63 270 0.0 2.6 0.00 0.00 0.00 85 1011.0
20260904225704 63 270 0.9 2.6 0.00 0.00 0.00 86 1011.0
20260904225204 62 217 0.0 1.7 0.00 0.00 0.00 87 1011.0
20260904224704 62 217 0.0 0.0 0.00 0.00 0.00 88 1010.9
20260904224204 62 217 0.0 0.0 0.00 0.00 0.00 88 1011.0
20260904223704 62 217 0.0 0.0 0.00 0.00 0.00 88 1011.0